| time (UTC) | temp F | wind direction | speed knots | gust knots | rain 1hr in | rain 24hr in | rain mn in | humidity % | barometer mb |
| 20260505171205 | 66 | 224 | 3.5 | 8.7 | 0.00 | 0.00 | 0.00 | 53 | 1007.3 |
| 20260505170704 | 67 | 210 | 3.5 | 8.7 | 0.00 | 0.00 | 0.00 | 52 | 1007.3 |
| 20260505170205 | 67 | 223 | 4.3 | 8.7 | 0.00 | 0.00 | 0.00 | 51 | 1007.5 |
| 20260505165704 | 67 | 215 | 4.3 | 11.3 | 0.00 | 0.00 | 0.00 | 50 | 1007.4 |
| 20260505165205 | 68 | 248 | 4.3 | 11.3 | 0.00 | 0.00 | 0.00 | 49 | 1007.4 |
| 20260505164705 | 68 | 227 | 5.2 | 13.0 | 0.00 | 0.00 | 0.00 | 49 | 1007.4 |
| 20260505164205 | 68 | 250 | 4.3 | 13.0 | 0.00 | 0.00 | 0.00 | 49 | 1007.5 |
| 20260505163705 | 68 | 0 | 4.3 | 13.0 | 0.00 | 0.00 | 0.00 | 50 | 1007.5 |
| 20260505162705 | 69 | 194 | 5.2 | 12.2 | 0.00 | 0.00 | 0.00 | 49 | 1007.4 |
| 20260505161704 | 69 | 192 | 4.3 | 10.4 | 0.00 | 0.00 | 0.00 | 49 | 1007.5 |
| 20260505161205 | 69 | 0 | 4.3 | 10.4 | 0.00 | 0.00 | 0.00 | 49 | 1007.6 |
| 20260505160704 | 69 | 0 | 4.3 | 12.2 | 0.00 | 0.00 | 0.00 | 48 | 1007.7 |
| 20260505160205 | 70 | 183 | 5.2 | 12.2 | 0.00 | 0.00 | 0.00 | 48 | 1007.9 |
| 20260505153205 | 70 | 222 | 6.1 | 11.3 | 0.00 | 0.00 | 0.00 | 45 | 1007.9 |
| 20260505152204 | 70 | 156 | 5.2 | 10.4 | 0.00 | 0.00 | 0.00 | 46 | 1007.9 |
| 20260505151704 | 70 | 211 | 5.2 | 10.4 | 0.00 | 0.00 | 0.00 | 46 | 1008.0 |
| 20260505151205 | 70 | 236 | 4.3 | 10.4 | 0.00 | 0.00 | 0.00 | 46 | 1008.0 |
| 20260505150704 | 70 | 163 | 5.2 | 10.4 | 0.00 | 0.00 | 0.00 | 46 | 1007.9 |
| 20260505150205 | 70 | 151 | 4.3 | 10.4 | 0.00 | 0.00 | 0.00 | 46 | 1008.1 |
| 20260505140205 | 71 | 219 | 6.1 | 13.0 | 0.00 | 0.00 | 0.00 | 44 | 1008.3 |
| 20260505130229 | 73 | 0 | 7.0 | 13.0 | 0.00 | 0.00 | 0.00 | 38 | 1008.2 |
| 20260505123704 | 75 | 205 | 6.1 | 9.6 | 0.00 | 0.00 | 0.00 | 34 | 1008.1 |
| 20260505123205 | 75 | 187 | 4.3 | 9.6 | 0.00 | 0.00 | 0.00 | 35 | 1008.1 |
| 20260505122205 | 75 | 159 | 4.3 | 13.0 | 0.00 | 0.00 | 0.00 | 36 | 1008.3 |
| 20260505121704 | 74 | 178 | 5.2 | 17.4 | 0.00 | 0.00 | 0.00 | 36 | 1008.3 |
| 20260505121205 | 75 | 180 | 6.1 | 17.4 | 0.00 | 0.00 | 0.00 | 36 | 1008.4 |
| 20260505120705 | 76 | 274 | 6.1 | 17.4 | 0.00 | 0.00 | 0.00 | 35 | 1008.4 |
| 20260505120204 | 76 | 198 | 6.1 | 11.3 | 0.00 | 0.00 | 0.00 | 34 | 1008.4 |
| 20260505115705 | 76 | 242 | 5.2 | 12.2 | 0.00 | 0.00 | 0.00 | 36 | 1008.3 |
| 20260505114705 | 75 | 206 | 6.1 | 13.9 | 0.00 | 0.00 | 0.00 | 35 | 1008.1 |
| 20260505114204 | 76 | 196 | 6.1 | 13.9 | 0.00 | 0.00 | 0.00 | 35 | 1008.3 |
| 20260505113704 | 76 | 273 | 6.1 | 12.2 | 0.00 | 0.00 | 0.00 | 35 | 1008.3 |
| 20260505113205 | 76 | 265 | 6.1 | 16.5 | 0.00 | 0.00 | 0.00 | 34 | 1008.3 |
| 20260505112704 | 77 | 271 | 6.1 | 16.5 | 0.00 | 0.00 | 0.00 | 33 | 1008.2 |
| 20260505112205 | 77 | 237 | 7.0 | 16.5 | 0.00 | 0.00 | 0.00 | 34 | 1008.2 |
| 20260505111704 | 78 | 212 | 5.2 | 15.6 | 0.00 | 0.00 | 0.00 | 33 | 1008.3 |
| 20260505111205 | 77 | 209 | 5.2 | 13.9 | 0.00 | 0.00 | 0.00 | 35 | 1008.3 |
| 20260505110704 | 76 | 169 | 7.0 | 13.9 | 0.00 | 0.00 | 0.00 | 34 | 1008.3 |
| 20260505110205 | 76 | 143 | 6.1 | 13.9 | 0.00 | 0.00 | 0.00 | 34 | 1008.3 |
| 20260505102205 | 76 | 167 | 6.1 | 16.5 | 0.00 | 0.00 | 0.00 | 31 | 1008.7 |
| 20260505101704 | 76 | 132 | 5.2 | 16.5 | 0.00 | 0.00 | 0.00 | 30 | 1008.7 |
| 20260505101205 | 76 | 182 | 7.0 | 16.5 | 0.00 | 0.00 | 0.00 | 30 | 1008.5 |
| 20260505100724 | 76 | 225 | 6.1 | 16.5 | 0.00 | 0.00 | 0.00 | 31 | 1008.6 |
| 20260505100205 | 76 | 224 | 6.1 | 15.6 | 0.00 | 0.00 | 0.00 | 32 | 1008.7 |
| 20260505095704 | 75 | 157 | 7.0 | 15.6 | 0.00 | 0.00 | 0.00 | 31 | 1008.7 |
| 20260505095205 | 76 | 168 | 6.1 | 13.0 | 0.00 | 0.00 | 0.00 | 31 | 1008.7 |
| 20260505094704 | 75 | 153 | 7.0 | 16.5 | 0.00 | 0.00 | 0.00 | 31 | 1008.7 |
| 20260505094205 | 75 | 186 | 7.0 | 16.5 | 0.00 | 0.00 | 0.00 | 31 | 1008.8 |
| 20260505093205 | 75 | 192 | 6.1 | 14.8 | 0.00 | 0.00 | 0.00 | 31 | 1008.8 |
| 20260505092704 | 75 | 182 | 5.2 | 14.8 | 0.00 | 0.00 | 0.00 | 31 | 1008.8 |
| 20260505092205 | 75 | 138 | 5.2 | 14.8 | 0.00 | 0.00 | 0.00 | 34 | 1008.7 |
| 20260505091705 | 75 | 155 | 4.3 | 10.4 | 0.00 | 0.00 | 0.00 | 34 | 1008.7 |
| 20260505091205 | 74 | 201 | 5.2 | 11.3 | 0.00 | 0.00 | 0.00 | 33 | 1008.8 |
| 20260505090704 | 75 | 132 | 6.1 | 13.0 | 0.00 | 0.00 | 0.00 | 33 | 1008.9 |
| 20260505085205 | 74 | 181 | 4.3 | 11.3 | 0.00 | 0.00 | 0.00 | 34 | 1008.9 |
| 20260505084704 | 73 | 165 | 5.2 | 11.3 | 0.00 | 0.00 | 0.00 | 34 | 1008.9 |
| 20260505084205 | 73 | 148 | 5.2 | 11.3 | 0.00 | 0.00 | 0.00 | 35 | 1008.9 |
| 20260505083704 | 72 | 100 | 5.2 | 10.4 | 0.00 | 0.00 | 0.00 | 35 | 1008.9 |
| 20260505083205 | 73 | 146 | 4.3 | 10.4 | 0.00 | 0.00 | 0.00 | 35 | 1009.0 |
| 20260505082704 | 73 | 113 | 3.5 | 9.6 | 0.00 | 0.00 | 0.00 | 37 | 1009.0 |
| 20260505082205 | 73 | 165 | 2.6 | 8.7 | 0.00 | 0.00 | 0.00 | 37 | 1009.0 |
| 20260505081705 | 72 | 103 | 2.6 | 8.7 | 0.00 | 0.00 | 0.00 | 39 | 1009.1 |
| 20260505081204 | 71 | 77 | 2.6 | 7.0 | 0.00 | 0.00 | 0.00 | 40 | 1009.2 |
| 20260505080705 | 70 | 219 | 2.6 | 5.2 | 0.00 | 0.00 | 0.00 | 43 | 1009.2 |
| 20260505080204 | 70 | 155 | 1.7 | 5.2 | 0.00 | 0.00 | 0.00 | 43 | 1009.3 |
| 20260505075704 | 71 | 319 | 0.9 | 4.3 | 0.00 | 0.00 | 0.00 | 43 | 1009.4 |
| 20260505075204 | 68 | 65 | 0.9 | 4.3 | 0.00 | 0.00 | 0.00 | 50 | 1009.5 |
| 20260505074704 | 67 | 119 | 1.7 | 4.3 | 0.00 | 0.00 | 0.00 | 50 | 1009.5 |
| 20260505074205 | 67 | 61 | 2.6 | 4.3 | 0.00 | 0.00 | 0.00 | 51 | 1009.6 |
| 20260505073704 | 66 | 70 | 1.7 | 4.3 | 0.00 | 0.00 | 0.00 | 53 | 1009.7 |
| 20260505073205 | 67 | 88 | 1.7 | 4.3 | 0.00 | 0.00 | 0.00 | 52 | 1009.7 |
| 20260505072704 | 67 | 64 | 1.7 | 4.3 | 0.00 | 0.00 | 0.00 | 51 | 1009.8 |
| 20260505072205 | 66 | 75 | 1.7 | 4.3 | 0.00 | 0.00 | 0.00 | 52 | 1009.8 |
| 20260505071205 | 65 | 50 | 1.7 | 5.2 | 0.00 | 0.00 | 0.00 | 55 | 1009.9 |
| 20260505070728 | 64 | 88 | 1.7 | 5.2 | 0.00 | 0.00 | 0.00 | 55 | 1010.0 |
| 20260505070205 | 63 | 59 | 1.7 | 4.3 | 0.00 | 0.00 | 0.00 | 58 | 1010.1 |
| 20260505065204 | 63 | 90 | 1.7 | 5.2 | 0.00 | 0.00 | 0.00 | 57 | 1010.2 |
| 20260505064705 | 62 | 53 | 1.7 | 5.2 | 0.00 | 0.00 | 0.00 | 60 | 1010.4 |
| 20260505064204 | 61 | 102 | 1.7 | 5.2 | 0.00 | 0.00 | 0.00 | 60 | 1010.4 |
| 20260505063705 | 61 | 99 | 1.7 | 5.2 | 0.00 | 0.00 | 0.00 | 61 | 1010.4 |
| 20260505063204 | 60 | 64 | 1.7 | 6.1 | 0.00 | 0.00 | 0.00 | 62 | 1010.4 |
| 20260505062705 | 59 | 85 | 2.6 | 6.1 | 0.00 | 0.00 | 0.00 | 62 | 1010.4 |
| 20260505062204 | 59 | 86 | 2.6 | 7.0 | 0.00 | 0.00 | 0.00 | 61 | 1010.5 |
| 20260505061704 | 59 | 58 | 3.5 | 7.0 | 0.00 | 0.00 | 0.00 | 63 | 1010.4 |
| 20260505061205 | 59 | 65 | 3.5 | 6.1 | 0.00 | 0.00 | 0.00 | 63 | 1010.5 |
| 20260505060704 | 59 | 61 | 2.6 | 6.1 | 0.00 | 0.00 | 0.00 | 63 | 1010.5 |
| 20260505060205 | 58 | 78 | 2.6 | 6.1 | 0.00 | 0.00 | 0.00 | 64 | 1010.6 |
| 20260505055704 | 57 | 83 | 2.6 | 5.2 | 0.00 | 0.00 | 0.00 | 66 | 1010.6 |
| 20260505055205 | 56 | 88 | 2.6 | 5.2 | 0.00 | 0.00 | 0.00 | 68 | 1010.6 |
| 20260505054704 | 56 | 66 | 2.6 | 5.2 | 0.00 | 0.00 | 0.00 | 68 | 1010.6 |
| 20260505054204 | 56 | 71 | 1.7 | 4.3 | 0.00 | 0.00 | 0.00 | 70 | 1010.7 |
| 20260505053704 | 55 | 94 | 1.7 | 5.2 | 0.00 | 0.00 | 0.00 | 69 | 1010.7 |
| 20260505053205 | 55 | 60 | 2.6 | 5.2 | 0.00 | 0.00 | 0.00 | 70 | 1010.7 |
| 20260505052705 | 54 | 0 | 2.6 | 4.3 | 0.00 | 0.00 | 0.00 | 70 | 1010.7 |
| 20260505052205 | 54 | 208 | 2.6 | 4.3 | 0.00 | 0.00 | 0.00 | 71 | 1010.8 |
| 20260505051704 | 54 | 0 | 1.7 | 4.3 | 0.00 | 0.00 | 0.00 | 72 | 1010.7 |
| 20260505050704 | 53 | 0 | 2.6 | 4.3 | 0.00 | 0.00 | 0.00 | 74 | 1010.8 |
| 20260505050205 | 53 | 0 | 2.6 | 4.3 | 0.00 | 0.00 | 0.00 | 75 | 1010.7 |
| 20260505041704 | 47 | 0 | 0.9 | 2.6 | 0.00 | 0.00 | 0.00 | 83 | 1010.7 |
| 20260505041205 | 48 | 0 | 0.9 | 2.6 | 0.00 | 0.00 | 0.00 | 83 | 1010.7 |
| 20260505040705 | 48 | 0 | 0.9 | 2.6 | 0.00 | 0.00 | 0.00 | 83 | 1010.7 |
| 20260505040204 | 48 | 0 | 0.9 | 2.6 | 0.00 | 0.00 | 0.00 | 83 | 1010.7 |
| 20260505035705 | 48 | 0 | 0.9 | 1.7 | 0.00 | 0.00 | 0.00 | 82 | 1010.7 |
| 20260505035205 | 48 | 0 | 0.9 | 1.7 | 0.00 | 0.00 | 0.00 | 82 | 1010.7 |
| 20260505034704 | 48 | 0 | 0.9 | 2.6 | 0.00 | 0.00 | 0.00 | 82 | 1010.6 |
| 20260505034205 | 48 | 0 | 0.9 | 2.6 | 0.00 | 0.00 | 0.00 | 82 | 1010.7 |
| 20260505033205 | 48 | 0 | 0.0 | 1.7 | 0.00 | 0.00 | 0.00 | 81 | 1010.7 |
| 20260505032705 | 48 | 0 | 0.0 | 2.6 | 0.00 | 0.00 | 0.00 | 80 | 1010.8 |
| 20260505032204 | 49 | 0 | 0.0 | 2.6 | 0.00 | 0.00 | 0.00 | 80 | 1010.8 |
| 20260505031704 | 49 | 0 | 0.9 | 2.6 | 0.00 | 0.00 | 0.00 | 79 | 1010.7 |
| 20260505031204 | 49 | 0 | 1.7 | 2.6 | 0.00 | 0.00 | 0.00 | 79 | 1010.8 |
| 20260505030705 | 49 | 0 | 1.7 | 2.6 | 0.00 | 0.00 | 0.00 | 78 | 1010.9 |
| 20260505030205 | 50 | 0 | 1.7 | 2.6 | 0.00 | 0.00 | 0.00 | 77 | 1010.9 |
| 20260505025704 | 50 | 0 | 0.9 | 3.5 | 0.00 | 0.00 | 0.00 | 78 | 1011.0 |
| 20260505025205 | 50 | 0 | 0.9 | 3.5 | 0.00 | 0.00 | 0.00 | 77 | 1010.9 |
| 20260505024705 | 51 | 0 | 0.9 | 3.5 | 0.00 | 0.00 | 0.00 | 77 | 1011.0 |
| 20260505024205 | 50 | 0 | 0.9 | 3.5 | 0.00 | 0.00 | 0.00 | 77 | 1011.0 |
| 20260505023705 | 50 | 0 | 0.0 | 2.6 | 0.00 | 0.00 | 0.00 | 77 | 1011.0 |
| 20260505023204 | 50 | 0 | 0.9 | 2.6 | 0.00 | 0.00 | 0.00 | 76 | 1011.1 |
| 20260505022705 | 50 | 0 | 0.9 | 3.5 | 0.00 | 0.00 | 0.00 | 76 | 1011.1 |
| 20260505022204 | 50 | 0 | 0.0 | 3.5 | 0.00 | 0.00 | 0.00 | 76 | 1011.1 |
| 20260505021704 | 51 | 0 | 0.9 | 3.5 | 0.00 | 0.00 | 0.00 | 75 | 1011.2 |
| 20260505021205 | 50 | 0 | 0.9 | 1.7 | 0.00 | 0.00 | 0.00 | 76 | 1011.2 |
| 20260505020704 | 50 | 0 | 0.9 | 1.7 | 0.00 | 0.00 | 0.00 | 77 | 1011.1 |
| 20260505015704 | 50 | 0 | 0.9 | 1.7 | 0.00 | 0.00 | 0.00 | 77 | 1011.4 |
| 20260505015205 | 50 | 0 | 0.0 | 1.7 | 0.00 | 0.00 | 0.00 | 77 | 1011.4 |
| 20260505014705 | 50 | 0 | 0.0 | 1.7 | 0.00 | 0.00 | 0.00 | 77 | 1011.4 |
| 20260505014204 | 50 | 0 | 0.0 | 1.7 | 0.00 | 0.00 | 0.00 | 77 | 1011.4 |
| 20260505013705 | 50 | 0 | 0.0 | 1.7 | 0.00 | 0.00 | 0.00 | 76 | 1011.4 |
| 20260505013205 | 50 | 0 | 0.0 | 1.7 | 0.00 | 0.00 | 0.00 | 76 | 1011.4 |
| 20260505012705 | 50 | 0 | 0.0 | 2.6 | 0.00 | 0.00 | 0.00 | 76 | 1011.4 |
| 20260505012233 | 50 | 0 | 0.9 | 2.6 | 0.00 | 0.00 | 0.00 | 75 | 1011.3 |
| 20260505011704 | 51 | 0 | 0.9 | 2.6 | 0.00 | 0.00 | 0.00 | 74 | 1011.3 |
| 20260505011204 | 51 | 0 | 0.9 | 1.7 | 0.00 | 0.00 | 0.00 | 75 | 1011.3 |
| 20260505010704 | 51 | 0 | 0.9 | 1.7 | 0.00 | 0.00 | 0.00 | 74 | 1011.4 |
| 20260505010205 | 51 | 0 | 0.9 | 1.7 | 0.00 | 0.00 | 0.00 | 76 | 1011.4 |
| 20260505005704 | 50 | 0 | 0.0 | 1.7 | 0.00 | 0.00 | 0.00 | 76 | 1011.4 |
| 20260505005205 | 50 | 0 | 0.0 | 1.7 | 0.00 | 0.00 | 0.00 | 75 | 1011.5 |
| 20260505004704 | 51 | 0 | 0.0 | 1.7 | 0.00 | 0.00 | 0.00 | 74 | 1011.4 |
| 20260505004205 | 51 | 0 | 0.0 | 2.6 | 0.00 | 0.00 | 0.00 | 74 | 1011.5 |
| 20260505003704 | 51 | 0 | 0.9 | 3.5 | 0.00 | 0.00 | 0.00 | 73 | 1011.5 |
| 20260505003205 | 52 | 0 | 0.9 | 3.5 | 0.00 | 0.00 | 0.00 | 72 | 1011.5 |
| 20260505002704 | 52 | 0 | 0.9 | 3.5 | 0.00 | 0.00 | 0.00 | 72 | 1011.6 |
| 20260505002205 | 51 | 0 | 0.9 | 1.7 | 0.00 | 0.00 | 0.00 | 74 | 1011.6 |
| 20260505001705 | 51 | 0 | 0.0 | 1.7 | 0.00 | 0.00 | 0.00 | 74 | 1011.6 |
| 20260505001205 | 51 | 0 | 0.0 | 1.7 | 0.00 | 0.00 | 0.00 | 73 | 1011.7 |
| 20260505000705 | 51 | 0 | 0.0 | 1.7 | 0.00 | 0.00 | 0.00 | 73 | 1011.7 |
| 20260505000204 | 51 | 0 | 0.0 | 1.7 | 0.00 | 0.00 | 0.00 | 74 | 1011.7 |
| 20260504235705 | 51 | 0 | 0.9 | 2.6 | 0.00 | 0.00 | 0.00 | 74 | 1011.8 |
| 20260504234704 | 52 | 0 | 0.9 | 2.6 | 0.00 | 0.00 | 0.00 | 73 | 1011.9 |
| 20260504233704 | 53 | 0 | 0.0 | 1.7 | 0.00 | 0.00 | 0.00 | 71 | 1011.9 |
| 20260504233205 | 52 | 0 | 0.0 | 1.7 | 0.00 | 0.00 | 0.00 | 72 | 1012.0 |
| 20260504232704 | 52 | 0 | 0.0 | 1.7 | 0.00 | 0.00 | 0.00 | 72 | 1012.0 |
| 20260504231704 | 52 | 0 | 0.0 | 3.5 | 0.00 | 0.00 | 0.00 | 73 | 1012.1 |
| 20260504231205 | 52 | 0 | 0.9 | 3.5 | 0.00 | 0.00 | 0.00 | 72 | 1012.1 |
| 20260504230705 | 52 | 0 | 0.9 | 2.6 | 0.00 | 0.00 | 0.00 | 74 | 1012.2 |
| 20260504230204 | 52 | 0 | 0.0 | 1.7 | 0.00 | 0.00 | 0.00 | 74 | 1012.1 |
| 20260504225705 | 52 | 0 | 0.0 | 1.7 | 0.00 | 0.00 | 0.00 | 74 | 1012.1 |
| 20260504225204 | 52 | 0 | 0.0 | 2.6 | 0.00 | 0.00 | 0.00 | 73 | 1012.1 |
| 20260504224705 | 53 | 0 | 0.9 | 2.6 | 0.00 | 0.00 | 0.00 | 72 | 1012.1 |
| 20260504224205 | 53 | 0 | 0.9 | 3.5 | 0.00 | 0.00 | 0.00 | 71 | 1012.2 |
| 20260504223705 | 54 | 0 | 0.9 | 3.5 | 0.00 | 0.00 | 0.00 | 71 | 1012.2 |
| 20260504223204 | 54 | 0 | 0.9 | 3.5 | 0.00 | 0.00 | 0.00 | 70 | 1012.3 |
| 20260504222705 | 53 | 0 | 0.9 | 2.6 | 0.00 | 0.00 | 0.00 | 73 | 1012.3 |
| 20260504222204 | 53 | 0 | 0.9 | 2.6 | 0.00 | 0.00 | 0.00 | 73 | 1012.3 |
| 20260504221705 | 53 | 0 | 0.9 | 2.6 | 0.00 | 0.00 | 0.00 | 73 | 1012.3 |
| 20260504221205 | 53 | 0 | 0.0 | 1.7 | 0.00 | 0.00 | 0.00 | 73 | 1012.3 |
| 20260504220705 | 53 | 0 | 0.0 | 0.9 | 0.00 | 0.00 | 0.00 | 73 | 1012.3 |
| 20260504220204 | 53 | 0 | 0.0 | 1.7 | 0.00 | 0.00 | 0.00 | 72 | 1012.3 |
| 20260504215705 | 54 | 0 | 0.0 | 1.7 | 0.00 | 0.00 | 0.00 | 72 | 1012.4 |
| 20260504215204 | 54 | 0 | 0.0 | 2.6 | 0.00 | 0.00 | 0.00 | 72 | 1012.3 |
| 20260504214704 | 54 | 0 | 0.9 | 2.6 | 0.00 | 0.00 | 0.00 | 71 | 1012.3 |
| 20260504214205 | 55 | 0 | 0.9 | 2.6 | 0.00 | 0.00 | 0.00 | 71 | 1012.3 |
| 20260504212704 | 55 | 0 | 0.0 | 0.9 | 0.00 | 0.00 | 0.00 | 71 | 1012.3 |
| 20260504212205 | 55 | 0 | 0.0 | 0.9 | 0.00 | 0.00 | 0.00 | 70 | 1012.3 |
| 20260504211704 | 56 | 0 | 0.0 | 1.7 | 0.00 | 0.00 | 0.00 | 70 | 1012.4 |
| 20260504211205 | 56 | 0 | 0.0 | 1.7 | 0.00 | 0.00 | 0.00 | 70 | 1012.4 |
| 20260504210722 | 56 | 0 | 0.0 | 0.9 | 0.00 | 0.00 | 0.00 | 69 | 1012.4 |
| 20260504210204 | 56 | 0 | 0.0 | 1.7 | 0.00 | 0.00 | 0.00 | 69 | 1012.4 |
| 20260504205704 | 57 | 0 | 0.9 | 1.7 | 0.00 | 0.00 | 0.00 | 69 | 1012.3 |
| 20260504205204 | 57 | 0 | 0.9 | 1.7 | 0.00 | 0.00 | 0.00 | 68 | 1012.3 |
| 20260504204704 | 57 | 0 | 0.0 | 1.7 | 0.00 | 0.00 | 0.00 | 68 | 1012.3 |
| 20260504204205 | 58 | 0 | 0.0 | 1.7 | 0.00 | 0.00 | 0.00 | 67 | 1012.3 |
| 20260504203704 | 58 | 0 | 0.0 | 1.7 | 0.00 | 0.00 | 0.00 | 66 | 1012.3 |
| 20260504203205 | 58 | 0 | 0.0 | 0.9 | 0.00 | 0.00 | 0.00 | 66 | 1012.3 |
| 20260504202704 | 59 | 0 | 0.0 | 0.9 | 0.00 | 0.00 | 0.00 | 66 | 1012.3 |
| 20260504202205 | 59 | 0 | 0.0 | 1.7 | 0.00 | 0.00 | 0.00 | 65 | 1012.3 |
| 20260504201705 | 59 | 0 | 0.0 | 1.7 | 0.00 | 0.00 | 0.00 | 65 | 1012.3 |
| 20260504201205 | 59 | 0 | 0.0 | 1.7 | 0.00 | 0.00 | 0.00 | 64 | 1012.3 |
| 20260504200204 | 60 | 0 | 0.0 | 1.7 | 0.00 | 0.00 | 0.00 | 63 | 1012.2 |
| 20260504195705 | 60 | 0 | 0.0 | 1.7 | 0.00 | 0.00 | 0.00 | 63 | 1012.3 |
| 20260504195204 | 61 | 0 | 0.0 | 1.7 | 0.00 | 0.00 | 0.00 | 62 | 1012.2 |
| 20260504194705 | 61 | 0 | 0.9 | 1.7 | 0.00 | 0.00 | 0.00 | 61 | 1012.2 |
| 20260504194204 | 61 | 0 | 0.9 | 1.7 | 0.00 | 0.00 | 0.00 | 61 | 1012.2 |
| 20260504193704 | 62 | 0 | 0.0 | 1.7 | 0.00 | 0.00 | 0.00 | 60 | 1012.2 |
| 20260504193204 | 62 | 0 | 0.9 | 1.7 | 0.00 | 0.00 | 0.00 | 59 | 1012.0 |
| 20260504192705 | 63 | 0 | 0.0 | 1.7 | 0.00 | 0.00 | 0.00 | 58 | 1012.0 |
| 20260504192205 | 63 | 0 | 0.0 | 1.7 | 0.00 | 0.00 | 0.00 | 58 | 1012.0 |
| 20260504191704 | 63 | 0 | 0.0 | 1.7 | 0.00 | 0.00 | 0.00 | 56 | 1012.0 |
| 20260504190705 | 64 | 0 | 0.0 | 0.9 | 0.00 | 0.00 | 0.00 | 56 | 1011.8 |
| 20260504190204 | 64 | 0 | 0.0 | 0.9 | 0.00 | 0.00 | 0.00 | 55 | 1011.7 |
| 20260504185705 | 65 | 0 | 0.0 | 1.7 | 0.00 | 0.00 | 0.00 | 54 | 1011.7 |
| 20260504185204 | 66 | 0 | 0.9 | 1.7 | 0.00 | 0.00 | 0.00 | 52 | 1011.7 |
| 20260504184705 | 66 | 0 | 0.9 | 1.7 | 0.00 | 0.00 | 0.00 | 51 | 1011.6 |
| 20260504184204 | 66 | 0 | 0.0 | 1.7 | 0.00 | 0.00 | 0.00 | 50 | 1011.5 |
| 20260504183705 | 67 | 0 | 0.0 | 0.9 | 0.00 | 0.00 | 0.00 | 50 | 1011.4 |
| 20260504182204 | 69 | 0 | 0.9 | 3.5 | 0.00 | 0.00 | 0.00 | 47 | 1011.3 |
| 20260504181705 | 70 | 0 | 0.9 | 3.5 | 0.00 | 0.00 | 0.00 | 45 | 1011.3 |
| 20260504181205 | 70 | 0 | 0.9 | 3.5 | 0.00 | 0.00 | 0.00 | 44 | 1011.3 |
| 20260504180205 | 71 | 0 | 0.9 | 4.3 | 0.00 | 0.00 | 0.00 | 42 | 1011.2 |
| 20260504175704 | 71 | 0 | 0.9 | 4.3 | 0.00 | 0.00 | 0.00 | 42 | 1011.3 |
| 20260504175205 | 72 | 0 | 1.7 | 5.2 | 0.00 | 0.00 | 0.00 | 41 | 1011.2 |
| 20260504174705 | 72 | 202 | 0.9 | 5.2 | 0.00 | 0.00 | 0.00 | 42 | 1011.2 |
| 20260504174204 | 72 | 194 | 0.9 | 5.2 | 0.00 | 0.00 | 0.00 | 42 | 1011.2 |
| 20260504173705 | 72 | 174 | 0.9 | 3.5 | 0.00 | 0.00 | 0.00 | 42 | 1011.1 |
| 20260504173205 | 72 | 236 | 0.9 | 3.5 | 0.00 | 0.00 | 0.00 | 44 | 1011.1 |
| 20260504172204 | 72 | 200 | 0.9 | 1.7 | 0.00 | 0.00 | 0.00 | 45 | 1011.1 |